Wind_Speed
40 40 42 43 46 47 49 51 52 56 58 58 58 59 60 63 64 63 62 61 61 61 60 59 58 55 53 51 49 47 45 43 41 41 39 37 36 35 33 32 31 31 31
35 36 38 40 42 43 45 48 50 53 55 56 57 57 59 61 63 63 62 61 61 61 59 59 58 57 54 52 51 49 47 44 42 41 40 38 37 36 34 33 32 32 32
33 34 36 37 39 40 42 44 48 49 51 54 57 57 58 60 62 63 62 61 61 62 61 59 59 58 55 52 51 49 47 45 44 43 41 39 37 36 35 34 33 33 33
32 32 33 34 35 37 39 41 43 46 47 51 54 56 57 58 60 62 61 61 61 62 62 60 60 59 57 53 52 50 48 48 46 45 42 39 37 37 36 35 34 34 34
31 30 32 33 34 34 36 38 39 43 45 48 51 55 56 56 58 61 62 59 59 61 60 59 59 59 57 54 52 50 48 47 45 44 43 41 39 37 36 35 35 35 35
30 30 30 31 31 31 32 35 38 40 43 45 48 51 54 55 56 59 60 58 58 59 60 59 58 58 57 56 52 49 47 47 45 44 43 41 40 38 37 36 35 35 35
29 28 27 27 29 29 30 31 34 37 42 44 46 50 52 53 54 56 56 56 57 58 59 59 59 58 57 56 55 51 47 47 45 44 43 42 40 39 38 37 35 34 34
29 28 27 28 28 28 29 30 32 36 39 41 45 48 49 51 53 55 55 54 53 55 58 59 59 59 59 57 56 53 47 46 45 44 43 41 40 38 37 36 35 34 34
30 29 27 28 28 29 29 29 31 35 37 39 42 46 47 48 51 53 52 51 51 54 56 56 58 58 57 55 55 54 48 45 44 43 42 40 38 37 37 36 35 34 33
30 29 27 27 26 28 29 28 30 33 35 36 39 44 45 46 50 53 51 51 49 51 53 53 56 56 56 55 53 52 51 47 44 43 41 39 38 37 36 35 35 34 34
31 29 27 26 26 27 27 27 28 31 34 35 38 42 43 45 49 51 52 51 48 50 51 53 54 54 55 53 51 50 50 48 44 42 41 40 38 37 36 35 34 33 33
30 28 27 26 25 25 26 26 27 30 33 35 37 41 42 44 46 49 50 49 48 49 50 51 53 52 51 51 50 48 48 47 43 41 40 38 37 36 35 34 33 32 32
30 27 26 26 25 24 24 24 27 29 31 34 35 38 41 43 44 47 47 47 48 48 48 50 52 51 49 49 48 47 45 44 43 41 39 37 36 35 34 32 32 31 32
29 27 26 26 25 24 24 25 27 28 30 32 34 34 38 41 42 44 46 47 47 46 45 46 48 50 49 47 46 44 42 42 40 39 38 36 35 34 32 31 31 31 31
28 26 26 26 25 24 24 25 26 27 29 33 35 34 34 39 40 41 43 45 46 46 45 43 44 47 47 46 45 43 41 40 39 37 36 35 34 32 32 31 31 30 31
28 26 25 25 24 24 23 24 25 26 27 31 34 36 36 37 38 40 42 44 44 45 45 42 41 44 45 45 45 44 40 38 37 36 35 35 34 32 32 31 30 30 31
28 26 25 24 24 24 24 25 25 27 28 30 33 35 36 37 38 40 41 43 44 45 45 43 42 43 44 45 44 42 39 38 37 36 35 34 33 32 31 30 30 30 31
27 26 24 24 24 26 26 26 26 27 29 31 33 36 37 37 38 40 42 43 43 43 45 43 42 42 43 44 42 43 40 38 37 36 35 34 33 32 31 30 30 31 30
27 26 24 24 25 27 27 27 26 27 28 29 32 35 36 37 38 40 42 42 41 42 44 43 42 42 42 43 43 42 41 39 37 36 35 34 34 33 31 30 30 30 30
27 26 25 24 24 26 27 27 28 27 27 28 31 33 35 36 37 39 41 41 40 40 43 43 43 43 42 42 43 42 39 38 37 37 36 35 35 34 32 31 30 29 29
28 27 26 24 25 26 27 27 28 28 28 29 31 33 34 35 37 38 39 41 40 41 42 43 44 44 42 42 43 41 39 38 38 36 35 35 35 34 32 31 29 28 29
28 28 27 26 26 27 27 27 28 28 28 29 31 33 33 34 35 37 38 40 40 40 42 43 43 43 42 41 41 41 40 38 37 37 36 35 36 35 32 31 31 30 30
28 27 26 26 26 26 27 27 28 28 28 29 31 32 33 34 35 36 37 38 39 40 40 41 42 41 42 41 39 39 39 39 37 37 35 34 34 34 33 32 31 30 29
27 25 25 24 24 26 27 27 27 28 27 28 30 32 34 35 36 36 36 38 38 39 39 40 40 40 40 40 38 37 38 40 39 37 35 34 33 33 33 33 32 30 29
26 24 24 23 23 24 26 27 27 27 26 27 28 30 33 34 34 35 35 36 37 37 39 40 39 39 39 39 38 37 36 37 37 37 36 34 32 32 33 33 32 30 28
25 23 23 22 22 23 25 26 26 26 26 27 28 30 32 33 34 35 36 36 36 37 38 38 38 38 39 39 38 37 36 35 35 36 34 33 32 31 30 30 30 30 29
Wind_Direction
274 271 271 269 265 260 254 249 245 241 238 235 233 233 232 231 230 228 228 229 229 229 229 229 230 232 233 234 235 236 238 240 242 245 246 249 252 254 257 260 264 267 270
278 277 274 272 267 261 256 249 244 241 237 234 231 231 230 229 228 227 226 227 227 226 226 227 228 229 231 232 234 235 237 239 241 244 246 248 251 253 256 260 263 266 270
284 281 278 274 268 263 257 250 242 239 237 234 231 229 229 228 227 225 224 225 226 225 224 226 227 227 229 230 233 234 237 238 240 243 245 247 250 254 257 260 263 267 270
290 286 280 274 269 264 257 249 242 237 236 234 230 228 227 227 226 224 222 223 224 225 224 225 225 226 227 229 232 234 236 238 241 243 244 246 250 253 257 260 263 267 270
294 290 283 276 270 265 256 248 242 238 236 235 232 228 227 227 225 223 221 221 223 224 223 223 224 225 225 228 231 232 234 237 239 242 244 246 250 253 257 260 263 266 269
296 292 284 277 271 266 258 251 245 240 237 234 231 229 227 225 223 221 221 221 222 222 221 222 224 224 225 227 229 231 234 236 238 241 243 246 249 253 256 259 263 266 269
300 295 285 277 270 264 256 250 247 242 234 230 229 227 226 223 222 220 220 220 220 220 221 221 222 223 223 225 228 230 234 234 236 240 243 246 249 253 255 258 262 265 269
301 297 290 278 269 263 257 252 249 241 233 230 228 225 225 224 221 219 220 219 219 219 219 220 221 222 223 225 228 230 232 233 236 239 242 245 249 252 255 257 261 265 268
300 295 289 280 270 262 256 250 246 239 236 233 228 226 225 225 222 219 219 219 220 219 219 220 220 221 222 225 227 228 230 232 235 237 240 243 247 250 253 256 260 264 268
300 293 286 278 269 261 257 253 245 239 237 234 228 225 223 224 221 217 217 216 219 219 219 219 220 221 221 223 226 228 231 232 235 236 238 242 245 247 251 255 259 263 266
298 292 285 277 269 260 254 249 245 240 237 233 229 224 222 222 219 217 217 216 218 219 219 220 220 221 222 224 226 229 231 233 235 236 238 240 242 246 250 254 258 262 266
298 291 284 275 266 260 255 251 247 242 236 231 227 224 221 218 215 216 215 218 219 218 219 221 220 220 222 224 225 228 231 232 233 236 237 238 242 246 249 253 257 261 265
296 290 283 276 268 260 256 253 247 241 233 228 225 223 220 215 214 215 215 217 217 217 219 221 220 220 222 224 225 226 229 230 232 234 234 238 242 245 248 252 256 260 264
294 287 281 274 270 264 259 255 247 239 233 228 222 217 217 215 215 216 217 215 214 215 216 218 220 221 221 222 224 224 226 228 230 232 234 237 240 244 247 251 255 260 265
294 285 279 273 268 264 260 257 250 242 233 226 219 218 217 215 215 217 216 214 214 215 217 218 219 219 218 220 223 224 227 228 229 231 233 235 238 242 245 250 256 260 264
293 286 278 271 265 261 259 253 247 238 230 227 223 221 220 216 216 216 215 215 216 218 219 220 219 218 218 219 223 224 227 227 227 229 231 235 239 242 246 251 255 260 265
292 285 277 269 264 259 256 250 243 234 229 228 225 223 223 220 219 216 214 215 218 221 221 220 219 217 218 220 222 222 224 225 225 228 232 235 239 243 246 249 254 261 266
291 284 277 269 263 257 253 247 245 239 233 231 229 225 224 223 220 216 215 217 219 220 219 218 220 218 218 219 219 220 221 223 225 228 232 235 239 242 245 249 255 261 265
291 285 278 271 263 257 252 247 246 240 234 232 230 226 224 223 221 218 217 218 219 218 217 218 220 218 217 218 219 220 220 222 225 228 232 234 238 240 245 249 255 259 265
289 284 279 271 263 256 253 248 245 241 236 233 230 227 225 223 221 220 219 219 217 216 217 219 219 217 217 218 219 219 221 223 225 228 231 234 239 243 245 250 255 260 265
287 283 277 271 262 256 253 249 243 241 238 235 231 228 226 225 223 220 219 218 217 217 218 219 218 217 217 218 219 219 220 224 226 228 231 234 238 242 246 249 252 259 265
287 282 275 270 262 255 251 247 242 240 238 234 230 228 227 225 222 219 218 218 217 216 217 218 218 218 218 219 221 221 222 222 226 229 231 234 237 240 244 247 251 259 265
289 282 276 269 261 253 248 244 240 239 238 233 230 228 226 225 223 220 218 217 216 214 215 215 216 218 219 219 220 220 221 223 226 228 231 234 236 238 242 246 253 259 264
289 282 276 269 260 251 245 242 239 236 235 233 230 228 226 224 222 218 217 217 216 215 216 215 216 217 217 218 219 219 221 223 225 229 231 232 234 238 242 247 253 257 264
286 280 275 268 258 250 243 240 240 237 233 232 231 228 224 220 218 216 215 215 215 215 214 215 216 217 217 218 220 221 220 222 225 229 232 232 234 238 243 248 253 257 261
281 277 272 266 259 251 243 240 239 238 235 233 230 226 221 218 217 215 213 212 212 213 213 213 213 214 215 219 220 220 220 222 224 227 230 231 235 240 244 249 253 257 259
Height
5602 5600 5599 5597 5597 5598 5600 5603 5607 5612 5618 5625 5632 5640 5647 5655 5664 5672 5681 5689 5697 5706 5714 5722 5730 5737 5744 5750 5755 5761 5765 5770 5773 5777 5780 5783 5786 5788 5790 5791 5792 5792 5792
5592 5590 5587 5585 5584 5585 5586 5588 5593 5598 5603 5610 5618 5625 5633 5641 5649 5658 5666 5675 5684 5692 5701 5709 5718 5726 5733 5739 5745 5751 5756 5761 5765 5770 5773 5775 5778 5780 5782 5784 5785 5785 5785
5582 5579 5576 5574 5573 5573 5574 5575 5580 5585 5590 5596 5603 5610 5617 5625 5634 5643 5652 5661 5670 5679 5689 5698 5706 5715 5722 5730 5736 5742 5748 5752 5757 5761 5766 5768 5771 5774 5775 5777 5778 5778 5778
5572 5569 5566 5564 5563 5563 5563 5564 5568 5573 5578 5583 5589 5596 5603 5612 5621 5630 5639 5649 5658 5667 5677 5686 5694 5703 5712 5720 5726 5733 5739 5744 5748 5752 5757 5762 5765 5767 5768 5769 5770 5771 5771
5563 5560 5557 5554 5553 5552 5553 5555 5558 5562 5566 5571 5577 5584 5591 5599 5608 5617 5627 5636 5646 5654 5664 5674 5683 5692 5701 5710 5717 5723 5729 5735 5739 5744 5748 5752 5756 5759 5761 5762 5763 5763 5763
5555 5551 5548 5545 5544 5543 5544 5546 5549 5552 5556 5560 5566 5572 5579 5587 5595 5604 5615 5624 5634 5643 5653 5663 5672 5682 5691 5700 5708 5714 5720 5725 5731 5735 5739 5743 5747 5750 5753 5754 5754 5755 5756
5547 5543 5540 5538 5537 5536 5537 5539 5541 5543 5546 5550 5555 5562 5569 5577 5584 5594 5604 5613 5623 5633 5643 5652 5662 5671 5681 5689 5697 5704 5710 5716 5721 5727 5731 5735 5739 5741 5744 5745 5746 5747 5748
5540 5536 5533 5531 5530 5529 5530 5531 5532 5534 5537 5541 5547 5553 5560 5567 5575 5584 5594 5604 5613 5623 5632 5643 5652 5661 5670 5678 5687 5694 5700 5706 5712 5718 5722 5726 5730 5733 5735 5737 5739 5740 5740
5534 5530 5527 5525 5523 5522 5522 5523 5524 5527 5530 5534 5539 5545 5552 5559 5567 5576 5585 5595 5604 5613 5622 5633 5642 5651 5660 5668 5677 5684 5690 5697 5703 5709 5714 5718 5721 5724 5727 5729 5731 5732 5732
5528 5524 5521 5518 5516 5515 5515 5516 5517 5520 5523 5527 5532 5537 5544 5551 5559 5568 5577 5586 5595 5604 5614 5623 5633 5642 5650 5659 5667 5674 5681 5688 5694 5699 5704 5709 5712 5716 5718 5721 5723 5724 5724
5521 5517 5514 5512 5510 5509 5509 5509 5511 5513 5516 5520 5525 5530 5537 5544 5551 5560 5569 5577 5586 5596 5605 5614 5623 5633 5641 5649 5657 5665 5672 5679 5684 5690 5695 5700 5704 5707 5710 5712 5714 5716 5716
5514 5511 5508 5506 5504 5503 5503 5504 5505 5507 5510 5514 5518 5524 5530 5536 5545 5553 5561 5569 5578 5588 5597 5606 5615 5624 5632 5639 5648 5656 5663 5669 5676 5682 5687 5692 5695 5699 5702 5704 5706 5708 5709
5507 5504 5502 5500 5499 5498 5497 5498 5499 5501 5504 5508 5512 5517 5523 5530 5538 5545 5554 5562 5571 5580 5589 5597 5606 5614 5623 5631 5639 5647 5654 5661 5667 5673 5679 5684 5687 5691 5694 5697 5698 5700 5701
5500 5497 5496 5494 5493 5493 5492 5493 5494 5496 5498 5502 5507 5512 5518 5525 5532 5539 5547 5555 5564 5572 5581 5589 5597 5606 5615 5623 5630 5638 5645 5652 5659 5665 5670 5675 5679 5683 5686 5689 5691 5692 5693
5494 5491 5490 5489 5488 5487 5488 5488 5489 5491 5494 5497 5503 5508 5513 5520 5526 5533 5541 5549 5557 5565 5573 5581 5588 5597 5605 5614 5622 5630 5637 5644 5651 5657 5662 5667 5671 5675 5678 5681 5683 5685 5685
5487 5485 5483 5483 5482 5482 5482 5483 5484 5487 5490 5494 5499 5504 5509 5514 5520 5527 5535 5543 5551 5558 5565 5573 5580 5588 5597 5606 5613 5621 5628 5636 5642 5649 5654 5659 5663 5667 5670 5673 5676 5677 5678
5480 5478 5476 5476 5476 5476 5477 5478 5480 5482 5486 5489 5494 5499 5504 5509 5514 5521 5529 5537 5544 5551 5558 5566 5573 5581 5589 5598 5605 5613 5620 5628 5634 5641 5646 5651 5655 5659 5662 5665 5668 5669 5670
5474 5471 5470 5469 5469 5470 5471 5472 5474 5477 5480 5483 5488 5492 5498 5502 5508 5515 5523 5530 5537 5543 5550 5558 5565 5573 5581 5589 5597 5605 5612 5620 5627 5633 5638 5643 5648 5652 5655 5658 5660 5661 5662
5467 5465 5463 5463 5463 5463 5464 5466 5468 5470 5473 5477 5481 5486 5491 5496 5503 5509 5516 5523 5530 5536 5543 5550 5558 5566 5574 5582 5589 5597 5604 5612 5619 5625 5631 5636 5640 5644 5647 5650 5652 5654 5654
5460 5458 5457 5456 5456 5456 5457 5460 5462 5464 5467 5471 5475 5480 5484 5490 5496 5502 5509 5516 5522 5529 5536 5543 5551 5559 5567 5574 5582 5589 5597 5604 5611 5617 5623 5628 5632 5636 5639 5642 5644 5646 5647
5453 5451 5450 5449 5449 5449 5450 5452 5455 5458 5461 5464 5468 5473 5478 5483 5489 5496 5502 5508 5515 5522 5529 5537 5545 5552 5560 5567 5575 5582 5590 5597 5604 5610 5615 5620 5624 5628 5631 5634 5636 5638 5639
5445 5443 5442 5441 5441 5442 5443 5445 5448 5450 5454 5457 5462 5466 5471 5476 5482 5489 5495 5502 5508 5515 5522 5530 5537 5545 5552 5560 5567 5575 5582 5590 5596 5602 5608 5612 5616 5620 5624 5626 5629 5630 5631
5436 5434 5433 5433 5434 5435 5436 5438 5440 5443 5447 5450 5454 5459 5464 5469 5475 5481 5488 5494 5501 5508 5515 5523 5530 5538 5546 5553 5560 5567 5574 5581 5588 5594 5600 5604 5608 5612 5616 5619 5621 5622 5623
5428 5426 5425 5425 5426 5427 5429 5431 5433 5436 5440 5444 5447 5452 5457 5462 5468 5474 5480 5487 5494 5501 5509 5516 5524 5531 5539 5546 5554 5560 5567 5574 5580 5586 5592 5596 5600 5604 5608 5611 5613 5615 5616
5420 5419 5418 5417 5418 5420 5422 5424 5427 5430 5433 5437 5441 5445 5450 5455 5461 5467 5473 5480 5487 5494 5502 5509 5517 5525 5533 5541 5547 5554 5561 5567 5573 5579 5584 5589 5593 5597 5600 5603 5606 5607 5608
5413 5411 5411 5411 5411 5413 5415 5417 5420 5423 5426 5430 5434 5438 5443 5448 5454 5461 5467 5473 5480 5487 5495 5502 5510 5518 5526 5533 5540 5547 5554 5560 5566 5572 5577 5582 5586 5590 5594 5596 5598 5600 5600